Flag for U.S.A. Weather past 2 weeks in Santa Clara, California, U.S.A.

52 °F

Partly sunny.

Feels Like: 50 °F
Forecast: 40 / 53 °F
Wind: 6 mph from North

Location: San Jose International Airport

Current Time: Nov 25, 2015 at 12:33:48 PM

Latest Report: Nov 25, 2015 at 11:53 AM

Visibility: 10 mi

Pressure: 29.93 "Hg

Humidity: 64%

Dew point: 40 °F

Location of Santa ClaraLocation

Historic Weather in Santa Clara — Graph


Santa Clara temperature yesterday

Maximum temperature yesterday: 56 °F (at 9:53 AM)
Minimum temperature yesterday: 45 °F (at 11:53 PM)
Average temperature yesterday: 51 °F

Past Weeks' High & Low Weather Summary

High71 °F (Nov 20, 12:53 PM)100% (Nov 15, 7:53 AM)30.42 "Hg (Nov 15, 7:53 AM)
Low40 °F (Nov 12, 6:53 AM)33% (Nov 16, 3:53 PM)29.79 "Hg (Nov 15, 3:53 AM)
Average53 °F74%30.09 "Hg
* Reported Nov 10 10:53 AM — Nov 25 10:53 AM, Santa Clara, Weather by CustomWeather, © 2015

Note: Actual official high and low records may vary slightly from our data, if they occured in-between our weather recording intervals... More about our weather records


Santa Clara weather history for previous 24 hours

Time TempWeatherWind HumidityBarometerVisibility
10:53 AM
Wed, Nov 25
49 °FBroken clouds.5 mph77%29.96 "Hg10 mi
9:53 AM48 °FBroken clouds.3 mph83%29.97 "Hg10 mi
8:53 AM45 °FScattered clouds.No wind93%29.96 "Hg10 mi
7:53 AM42 °FScattered clouds.No wind92%29.96 "Hg10 mi
6:53 AM41 °FPassing clouds.No wind100%29.94 "Hg10 mi
5:53 AM43 °FPassing clouds.No wind93%29.92 "Hg10 mi
4:53 AM43 °FPassing clouds.No wind97%29.91 "Hg10 mi
3:53 AM44 °FPassing clouds.No wind93%29.91 "Hg10 mi
3:00 AM45 °FHeavy rain. Fog.No wind93%29.92 "Hg2 mi
1:53 AM45 °FOvercast.6 mph93%29.90 "Hg10 mi
1:01 AM45 °FHeavy rain. Fog.7 mph87%29.91 "Hg4 mi
11:53 PM
Tue, Nov 24
45 °FPartly cloudy.6 mph86%29.90 "Hg10 mi
10:53 PM48 °FPartly cloudy.6 mph77%29.92 "Hg10 mi
9:53 PM48 °FPassing clouds.No wind80%29.93 "Hg10 mi
8:53 PM49 °FPartly cloudy.3 mph74%29.92 "Hg10 mi
7:53 PM49 °FPassing clouds.5 mph71%29.93 "Hg10 mi
6:53 PM50 °FPassing clouds.No wind66%29.93 "Hg10 mi
5:53 PM50 °FPassing clouds.3 mph66%29.93 "Hg10 mi
4:53 PM51 °FPassing clouds.9 mph66%29.93 "Hg10 mi
3:53 PM54 °FBroken clouds.15 mph59%29.92 "Hg10 mi
2:53 PM56 °FPassing clouds.15 mph51%29.92 "Hg10 mi
1:53 PM54 °FScattered clouds.17 mph64%29.91 "Hg10 mi
12:53 PM54 °FBroken clouds.17 mph74%29.91 "Hg10 mi
12:03 PM52 °FLight rain. Mostly cloudy.20 mph82%29.91 "Hg6 mi
Weather by CustomWeather, © 2015

See weather overviewHow to use our weather pages